• In Deutschland
  • Länderverzeichnis
  • Für 7 Tage
  • Wassertemperatur
  • Satellitenkarten
  • Wetterkarte
  • Widgets
  • user-avatar
    Anmelden

    Stündliche Wetter Wendelstein

    Heute, 25 September, Dienstag

    Zeit Temperatur Niederschläge Wind Luftdruck Luftfeuchtigkeit
    00:00 +5°C° 0 mm 2 m/S 738 mmHg 86%
    01:00 +5°C° 0 mm 2 m/S 738 mmHg 90%
    02:00 +5°C° 0 mm 1 m/S 739 mmHg 91%
    03:00 +5°C° 0 mm 1 m/S 739 mmHg 92%
    04:00 +4°C° 0 mm 1 m/S 739 mmHg 93%
    05:00 +5°C° 0 mm 1 m/S 739 mmHg 92%
    06:00 +5°C° 0 mm 1 m/S 739 mmHg 90%
    07:00 +5°C° 0 mm 1 m/S 740 mmHg 89%
    08:00 +7°C° 0 mm 1 m/S 740 mmHg 78%
    09:00 +8°C° 0 mm 2 m/S 740 mmHg 66%
    10:00 +10°C° 0 mm 2 m/S 741 mmHg 55%
    11:00 +12°C° 0 mm 2 m/S 741 mmHg 51%
    12:00 +12°C° 0 mm 2 m/S 741 mmHg 46%
    13:00 +13°C° 0 mm 2 m/S 741 mmHg 42%
    14:00 +13°C° 0 mm 2 m/S 740 mmHg 42%
    15:00 +13°C° 0 mm 2 m/S 740 mmHg 43%
    16:00 +13°C° 0 mm 2 m/S 740 mmHg 43%
    17:00 +10°C° 0 mm 2 m/S 740 mmHg 50%
    18:00 +9°C° 0 mm 2 m/S 740 mmHg 56%
    19:00 +8°C° 0 mm 1 m/S 740 mmHg 63%
    20:00 +6°C° 0 mm 2 m/S 740 mmHg 65%
    21:00 +6°C° 0 mm 2 m/S 740 mmHg 68%
    22:00 +5°C° 0 mm 2 m/S 740 mmHg 70%
    23:00 +5°C° 0 mm 2 m/S 740 mmHg 71%

    Morgen, 26 September, Mittwoch

    Zeit Temperatur Niederschläge Wind Luftdruck Luftfeuchtigkeit
    00:00 +4°C° 0 mm 2 m/S 740 mmHg 72%
    01:00 +4°C° 0 mm 2 m/S 740 mmHg 73%
    02:00 +3°C° 0 mm 2 m/S 740 mmHg 74%
    03:00 +3°C° 0 mm 2 m/S 739 mmHg 75%
    04:00 +3°C° 0 mm 2 m/S 739 mmHg 75%
    05:00 +3°C° 0 mm 2 m/S 739 mmHg 74%
    06:00 +4°C° 0 mm 1 m/S 739 mmHg 73%
    07:00 +4°C° 0 mm 1 m/S 739 mmHg 72%
    08:00 +6°C° 0 mm 2 m/S 739 mmHg 63%
    09:00 +8°C° 0 mm 2 m/S 739 mmHg 54%
    10:00 +12°C° 0 mm 2 m/S 739 mmHg 46%
    11:00 +13°C° 0 mm 2 m/S 739 mmHg 41%
    12:00 +15°C° 0 mm 2 m/S 738 mmHg 37%
    13:00 +16°C° 0 mm 2 m/S 738 mmHg 33%
    14:00 +18°C° 0 mm 1 m/S 738 mmHg 34%
    15:00 +18°C° 0 mm 1 m/S 737 mmHg 36%
    16:00 +18°C° 0 mm 1 m/S 737 mmHg 37%
    17:00 +15°C° 0 mm 1 m/S 737 mmHg 44%
    18:00 +13°C° 0 mm 1 m/S 737 mmHg 50%
    19:00 +9°C° 0 mm 0 m/S 737 mmHg 57%
    20:00 +10°C° 0 mm 1 m/S 737 mmHg 59%
    21:00 +9°C° 0 mm 1 m/S 737 mmHg 61%
    22:00 +9°C° 0 mm 1 m/S 737 mmHg 63%
    23:00 +8°C° 0 mm 1 m/S 737 mmHg 66%

    übermorgen, 27 September, Donnerstag

    Zeit Temperatur Niederschläge Wind Luftdruck Luftfeuchtigkeit
    00:00 +8°C° 0 mm 1 m/S 737 mmHg 68%
    01:00 +8°C° 0 mm 1 m/S 737 mmHg 70%
    02:00 +8°C° 0 mm 1 m/S 737 mmHg 72%
    03:00 +7°C° 0 mm 1 m/S 737 mmHg 73%
    04:00 +7°C° 0 mm 1 m/S 736 mmHg 75%
    05:00 +7°C° 0 mm 1 m/S 736 mmHg 75%
    06:00 +7°C° 0 mm 1 m/S 736 mmHg 75%
    07:00 +8°C° 0 mm 1 m/S 736 mmHg 74%
    08:00 +10°C° 0 mm 1 m/S 736 mmHg 66%
    09:00 +13°C° 0 mm 1 m/S 736 mmHg 57%
    10:00 +16°C° 0 mm 1 m/S 737 mmHg 49%
    11:00 +19°C° 0 mm 1 m/S 736 mmHg 44%
    12:00 +20°C° 0 mm 1 m/S 736 mmHg 40%
    13:00 +22°C° 0 mm 1 m/S 736 mmHg 35%
    14:00 +22°C° 0 mm 1 m/S 735 mmHg 37%
    15:00 +22°C° 0 mm 1 m/S 734 mmHg 39%
    16:00 +22°C° 0 mm 1 m/S 734 mmHg 41%
    17:00 +19°C° 0 mm 1 m/S 733 mmHg 48%
    18:00 +16°C° 0 mm 1 m/S 733 mmHg 55%
    19:00 +13°C° 0 mm 1 m/S 732 mmHg 63%
    20:00 +13°C° 0 mm 1 m/S 732 mmHg 66%
    21:00 +12°C° 0 mm 1 m/S 732 mmHg 70%
    22:00 +12°C° 0 mm 1 m/S 732 mmHg 73%
    23:00 +11°C° 0 mm 1 m/S 731 mmHg 76%

    28 September, Freitag

    Zeit Temperatur Niederschläge Wind Luftdruck Luftfeuchtigkeit
    00:00 +11°C° 0 mm 1 m/S 731 mmHg 79%
    01:00 +10°C° 0 mm 1 m/S 731 mmHg 81%
    02:00 +10°C° 0 mm 1 m/S 730 mmHg 83%
    03:00 +10°C° 0 mm 1 m/S 730 mmHg 84%
    04:00 +10°C° 0 mm 1 m/S 730 mmHg 85%
    05:00 +10°C° 0 mm 1 m/S 730 mmHg 85%
    06:00 +10°C° 0 mm 1 m/S 730 mmHg 84%
    07:00 +10°C° 0 mm 1 m/S 730 mmHg 84%
    08:00 +12°C° 0 mm 1 m/S 730 mmHg 75%
    09:00 +15°C° 0 mm 1 m/S 730 mmHg 66%
    10:00 +17°C° 0 mm 2 m/S 730 mmHg 57%
    11:00 +18°C° 0 mm 2 m/S 730 mmHg 53%
    12:00 +19°C° 0 mm 2 m/S 730 mmHg 48%
    13:00 +20°C° 0 mm 2 m/S 729 mmHg 43%
    14:00 +20°C° 0 mm 2 m/S 729 mmHg 44%
    15:00 +20°C° 0 mm 2 m/S 729 mmHg 45%
    16:00 +20°C° 0 mm 2 m/S 729 mmHg 46%
    17:00 +17°C° 0 mm 2 m/S 729 mmHg 53%
    18:00 +15°C° 0 mm 2 m/S 729 mmHg 61%
    19:00 +13°C° 0 mm 2 m/S 729 mmHg 68%
    20:00 +12°C° 0 mm 2 m/S 729 mmHg 75%
    21:00 +10°C° 0 mm 2 m/S 730 mmHg 82%
    22:00 +9°C° 0 mm 2 m/S 730 mmHg 89%
    23:00 +9°C° 0 mm 2 m/S 730 mmHg 90%

    29 September, Samstag

    Zeit Temperatur Niederschläge Wind Luftdruck Luftfeuchtigkeit
    00:00 +8°C° 0 mm 2 m/S 731 mmHg 92%
    01:00 +8°C° 0 mm 2 m/S 731 mmHg 94%
    02:00 +7°C° 0 mm 2 m/S 731 mmHg 93%
    03:00 +7°C° 0 mm 2 m/S 731 mmHg 93%
    04:00 +6°C° 0 mm 2 m/S 731 mmHg 93%
    05:00 +6°C° 0 mm 2 m/S 731 mmHg 91%
    06:00 +6°C° 0 mm 2 m/S 732 mmHg 89%
    07:00 +6°C° 0 mm 2 m/S 732 mmHg 87%
    08:00 +8°C° 0 mm 3 m/S 732 mmHg 76%
    09:00 +9°C° 0 mm 3 m/S 733 mmHg 66%
    10:00 +11°C° 0 mm 3 m/S 733 mmHg 55%
    11:00 +12°C° 0 mm 3 m/S 733 mmHg 51%
    12:00 +13°C° 0 mm 3 m/S 732 mmHg 47%
    13:00 +14°C° 0 mm 3 m/S 732 mmHg 42%
    14:00 +14°C° 0 mm 3 m/S 732 mmHg 43%
    15:00 +14°C° 0 mm 3 m/S 732 mmHg 44%
    16:00 +14°C° 0 mm 3 m/S 732 mmHg 44%
    17:00 +12°C° 0 mm 3 m/S 732 mmHg 51%
    18:00 +10°C° 0 mm 2 m/S 732 mmHg 57%
    19:00 +8°C° 0 mm 2 m/S 732 mmHg 64%
    20:00 +7°C° 0 mm 2 m/S 732 mmHg 65%
    21:00 +7°C° 0 mm 2 m/S 732 mmHg 67%
    22:00 +6°C° 0 mm 2 m/S 732 mmHg 68%
    23:00 +5°C° 0 mm 2 m/S 731 mmHg 70%

    30 September, Sonntag

    Zeit Temperatur Niederschläge Wind Luftdruck Luftfeuchtigkeit
    00:00 +5°C° 0 mm 2 m/S 731 mmHg 72%
    01:00 +5°C° 0 mm 2 m/S 731 mmHg 74%
    02:00 +4°C° 0 mm 2 m/S 731 mmHg 76%
    03:00 +4°C° 0 mm 2 m/S 730 mmHg 79%
    04:00 +5°C° 0 mm 1 m/S 730 mmHg 81%
    05:00 +5°C° 0 mm 1 m/S 730 mmHg 82%
    06:00 +5°C° 0 mm 1 m/S 730 mmHg 82%
    07:00 +5°C° 0 mm 1 m/S 730 mmHg 83%
    08:00 +7°C° 0 mm 1 m/S 730 mmHg 73%
    09:00 +9°C° 0 mm 2 m/S 730 mmHg 63%
    10:00 +13°C° 0 mm 2 m/S 730 mmHg 53%
    11:00 +14°C° 0 mm 2 m/S 730 mmHg 48%
    12:00 +15°C° 0 mm 1 m/S 730 mmHg 44%
    13:00 +16°C° 0 mm 1 m/S 730 mmHg 39%
    14:00 +16°C° 0 mm 1 m/S 729 mmHg 40%
    15:00 +16°C° 0 mm 1 m/S 729 mmHg 40%
    16:00 +16°C° 0 mm 1 m/S 729 mmHg 41%
    17:00 +14°C° 0 mm 1 m/S 729 mmHg 48%
    18:00 +12°C° 0 mm 1 m/S 729 mmHg 55%
    19:00 +10°C° 0 mm 1 m/S 729 mmHg 62%
    20:00 +9°C° 0 mm 1 m/S 730 mmHg 65%
    21:00 +9°C° 0 mm 1 m/S 730 mmHg 68%
    22:00 +8°C° 0 mm 1 m/S 730 mmHg 71%
    23:00 +8°C° 0 mm 1 m/S 730 mmHg 74%
    Mehr zeigen